User: anonymous
Location: Vancouver
(49.2500°N, 123.1330°W)
Time: 16:35:54
(UTC-07:00)
Language:

CZ-2C R/B - Orbit

View from above orbital plane
View from above orbital plane
View from above satellite
View from above satellite

Ground track
Ground track

The orbit data is extracted from the following two-line orbital elements,

1 28480U 04046B   14233.87365361  .00000014  00000-0  20557-4 0  4115
2 28480 098.0988 024.8218 0142875 028.1335 087.0269 14.25322395507448
Epoch (UTC): 21 August 2014 20:58:03
Eccentricity: 0.0142875
inclination: 98.0988°
perigee height: 705 km
apogee height: 910 km
right ascension of ascending node: 24.8218°
argument of perigee: 28.1335°
revolutions per day: 14.25322395
mean anomaly at epoch: 87.0269°
orbit number at epoch: 50744

The dashed part of the orbit path shows where the satellite is in the earth's shadow,  

DLR